FW4518 Weather Reports


Display with metric or nautical units.
time (UTC)temp
F
wind
direction
speed
MPH
gust
MPH
rain 1hr
in
rain 24hr
in
rain mn
in
humidity
%
barometer
mb
20260902080709 56 0.0 0.0 0.00 0.00 0.00 79 1012.2
20260902075709 56 358 2.0 4.0 0.00 0.00 0.00 79 1012.0
20260902074709 56 348 2.0 6.0 0.00 0.00 0.00 78 1012.0
20260902073709 56 0.0 2.0 0.00 0.00 0.00 77 1012.0
20260902072709 57 1 2.0 5.0 0.00 0.00 0.00 77 1012.0
20260902071710 56 355 2.0 6.0 0.00 0.00 0.00 78 1012.0
20260902070710 57 332 1.0 4.0 0.00 0.00 0.00 77 1012.1
20260902065729 57 353 2.0 6.0 0.00 0.00 0.00 76 1012.1
20260902064709 57 351 3.0 7.0 0.00 0.00 0.00 75 1012.1
20260902063729 57 340 2.0 6.0 0.00 0.00 0.00 75 1012.1
20260902062709 58 286 1.0 5.0 0.00 0.00 0.00 74 1012.2
20260902061709 58 299 1.0 6.0 0.00 0.00 0.00 73 1012.2
20260902060709 59 162 1.0 5.0 0.00 0.00 0.00 72 1012.2
20260902055710 59 9 1.0 3.0 0.00 0.00 0.00 71 1012.2
20260902054729 59 354 1.0 4.0 0.00 0.00 0.00 70 1012.2
20260902053710 59 327 2.0 6.0 0.00 0.00 0.00 69 1012.3
20260902052709 59 6 3.0 10.0 0.00 0.00 0.00 69 1012.3
20260902051710 60 359 3.0 11.0 0.00 0.00 0.00 68 1012.2
20260902050709 60 2 2.0 7.0 0.00 0.00 0.00 68 1012.1
20260902045709 60 26 3.0 7.0 0.00 0.00 0.00 68 1012.2
20260902044710 60 27 3.0 7.0 0.00 0.00 0.00 67 1011.9
20260902043709 60 99 5.0 8.0 0.00 0.00 0.00 67 1011.8
20260902042709 60 342 5.0 11.0 0.00 0.00 0.00 67 1011.6
20260902041709 61 17 5.0 10.0 0.00 0.00 0.00 67 1011.4
20260902040709 61 37 4.0 8.0 0.00 0.00 0.00 67 1011.4
20260902035730 61 22 3.0 8.0 0.00 0.00 0.00 67 1011.2
20260902034709 61 275 4.0 9.0 0.00 0.00 0.00 67 1010.9
20260902033729 62 200 2.0 7.0 0.00 0.00 0.00 67 1010.8
20260902032709 62 259 4.0 10.0 0.00 0.00 0.00 66 1010.6
20260902031710 62 342 2.0 8.0 0.00 0.00 0.00 66 1010.5
20260902030710 63 288 4.0 9.0 0.00 0.00 0.00 65 1010.3
20260902025710 63 16 6.0 16.0 0.00 0.00 0.00 64 1010.2
20260902024710 64 347 4.0 7.0 0.00 0.00 0.00 62 1010.1
20260902023709 64 331 3.0 8.0 0.00 0.00 0.00 61 1009.9
20260902022709 65 151 4.0 10.0 0.00 0.00 0.00 59 1009.8
20260902021710 65 96 6.0 13.0 0.00 0.00 0.00 58 1009.6
20260902020710 66 89 4.0 8.0 0.00 0.00 0.00 57 1009.6
20260902015710 67 189 5.0 9.0 0.00 0.00 0.00 56 1009.6
20260902014730 67 227 5.0 10.0 0.00 0.00 0.00 56 1009.6
20260902013710 68 310 4.0 10.0 0.00 0.00 0.00 55 1009.4
20260902012730 68 262 4.0 10.0 0.00 0.00 0.00 56 1009.3
20260902011730 69 213 6.0 13.0 0.00 0.00 0.00 54 1009.1
20260902010709 69 297 4.0 11.0 0.00 0.00 0.00 53 1009.0
20260902005710 70 196 4.0 11.0 0.00 0.00 0.00 52 1008.7
20260902004710 71 214 6.0 14.0 0.00 0.00 0.00 51 1008.8
20260902003709 71 147 6.0 13.0 0.00 0.00 0.00 51 1008.7
20260902002731 71 257 6.0 11.0 0.00 0.00 0.00 50 1008.6
20260902001710 73 329 6.0 12.0 0.00 0.00 0.00 47 1008.5
20260902000710 73 146 6.0 12.0 0.00 0.00 0.00 46 1008.4
20260901235710 75 198 5.0 11.0 0.00 0.00 0.00 44 1008.4
20260901234710 75 213 5.0 10.0 0.00 0.00 0.00 44 1008.5
20260901233710 76 177 6.0 12.0 0.00 0.00 0.00 43 1008.4
20260901232710 77 207 9.0 18.0 0.00 0.00 0.00 42 1008.5
20260901231710 77 139 7.0 13.0 0.00 0.00 0.00 41 1008.4
20260901230710 76 135 5.0 12.0 0.00 0.00 0.00 42 1008.5
20260901225710 76 228 7.0 13.0 0.00 0.00 0.00 42 1008.5
20260901224710 77 216 7.0 13.0 0.00 0.00 0.00 40 1008.4
20260901223730 77 204 5.0 11.0 0.00 0.00 0.00 39 1008.3
20260901222710 79 304 6.0 14.0 0.00 0.00 0.00 38 1008.2
20260901221730 80 14 4.0 11.0 0.00 0.00 0.00 35 1008.1
20260901220711 79 329 4.0 11.0 0.00 0.00 0.00 36 1008.1
20260901215710 82 209 3.0 8.0 0.00 0.00 0.00 34 1008.1
20260901214710 82 12 5.0 10.0 0.00 0.00 0.00 34 1008.0
20260901213710 79 11 3.0 9.0 0.00 0.00 0.00 36 1008.2
20260901212710 78 311 3.0 9.0 0.00 0.00 0.00 36 1008.2
20260901211730 80 49 2.0 10.0 0.00 0.00 0.00 35 1008.3
20260901210730 81 354 5.0 11.0 0.00 0.00 0.00 35 1008.3
20260901205710 80 5 5.0 11.0 0.00 0.00 0.00 36 1008.5
20260901204710 81 327 3.0 8.0 0.00 0.00 0.00 35 1008.7
20260901203710 80 183 1.0 2.0 0.00 0.00 0.00 39 1008.7
20260901202710 79 89 0.0 2.0 0.00 0.00 0.00 41 1008.8
20260901201710 79 6 4.0 10.0 0.00 0.00 0.00 40 1009.0
20260901200730 79 280 1.0 5.0 0.00 0.00 0.00 41 1009.0
20260901195711 80 359 1.0 5.0 0.00 0.00 0.00 41 1009.2
20260901194710 78 354 2.0 6.0 0.00 0.00 0.00 41 1009.4
20260901193711 78 207 2.0 7.0 0.00 0.00 0.00 42 1009.6
20260901192731 78 53 1.0 5.0 0.00 0.00 0.00 41 1009.7
20260901191710 77 289 2.0 5.0 0.00 0.00 0.00 42 1009.9
20260901190711 76 344 1.0 4.0 0.00 0.00 0.00 43 1010.1
20260901185711 75 13 3.0 7.0 0.00 0.00 0.00 44 1010.3
20260901184710 75 212 1.0 3.0 0.00 0.00 0.00 47 1010.3
20260901183730 74 228 2.0 4.0 0.00 0.00 0.00 46 1010.4
20260901182750 73 18 1.0 5.0 0.00 0.00 0.00 47 1010.4
20260901181730 72 184 2.0 6.0 0.00 0.00 0.00 50 1010.5
20260901180731 71 186 3.0 7.0 0.00 0.00 0.00 51 1010.6
20260901175710 70 168 0.0 2.0 0.00 0.00 0.00 51 1010.7
20260901174711 70 195 1.0 4.0 0.00 0.00 0.00 51 1010.7
20260901173731 68 147 3.0 7.0 0.00 0.00 0.00 54 1010.8
20260901172711 68 173 3.0 7.0 0.00 0.00 0.00 52 1010.7
20260901171711 68 204 4.0 6.0 0.00 0.00 0.00 53 1010.6
20260901170711 67 131 4.0 8.0 0.00 0.00 0.00 54 1010.6
20260901165731 65 161 6.0 9.0 0.00 0.00 0.00 55 1010.7
20260901164711 63 102 6.0 9.0 0.00 0.00 0.00 57 1010.8
20260901163711 61 177 3.0 6.0 0.00 0.00 0.00 60 1010.8
20260901162731 62 203 4.0 6.0 0.00 0.00 0.00 59 1010.7
20260901161711 61 120 3.0 6.0 0.00 0.00 0.00 58 1010.7
20260901160711 60 103 4.0 6.0 0.00 0.00 0.00 60 1010.8
20260901155710 61 158 4.0 6.0 0.00 0.00 0.00 60 1010.9
20260901154710 60 151 5.0 9.0 0.00 0.00 0.00 60 1011.1
20260901153711 59 148 3.0 7.0 0.00 0.00 0.00 60 1011.1
20260901152711 57 143 4.0 6.0 0.00 0.00 0.00 63 1011.2
20260901151711 56 198 2.0 4.0 0.00 0.00 0.00 66 1011.2
20260901150711 53 198 0.0 2.0 0.00 0.00 0.00 70 1011.2
20260901145711 51 0.0 0.0 0.00 0.00 0.00 73 1011.2
20260901144711 50 0.0 0.0 0.00 0.00 0.00 74 1011.1
20260901143711 49 0.0 0.0 0.00 0.00 0.00 76 1011.1
20260901142711 48 0.0 0.0 0.00 0.00 0.00 79 1011.0
20260901141711 48 0.0 0.0 0.00 0.00 0.00 77 1010.8
20260901140711 49 0.0 0.0 0.00 0.00 0.00 77 1010.7
20260901135711 49 0.0 0.0 0.00 0.00 0.00 77 1010.7
20260901134711 50 0.0 0.0 0.00 0.00 0.00 76 1010.6
20260901133711 50 195 1.0 4.0 0.00 0.00 0.00 75 1010.6
20260901132731 52 189 0.0 3.0 0.00 0.00 0.00 69 1010.4
20260901131731 52 193 1.0 3.0 0.00 0.00 0.00 68 1010.4
20260901130711 51 0.0 0.0 0.00 0.00 0.00 71 1010.4
20260901125711 51 0.0 0.0 0.00 0.00 0.00 71 1010.3
20260901124711 51 0.0 0.0 0.00 0.00 0.00 73 1010.4
20260901123712 50 0.0 0.0 0.00 0.00 0.00 75 1010.4
20260901122711 49 0.0 0.0 0.00 0.00 0.00 74 1010.4
20260901121711 48 0.0 0.0 0.00 0.00 0.00 76 1010.5
20260901120711 48 0.0 0.0 0.00 0.00 0.00 76 1010.5
20260901115711 48 0.0 0.0 0.00 0.00 0.00 73 1010.5
20260901114711 48 0.0 0.0 0.00 0.00 0.00 73 1010.6
20260901113711 48 0.0 0.0 0.00 0.00 0.00 72 1010.5
20260901112731 48 0.0 0.0 0.00 0.00 0.00 71 1010.4
20260901111711 49 0.0 0.0 0.00 0.00 0.00 70 1010.4
20260901110711 49 0.0 0.0 0.00 0.00 0.00 70 1010.3
20260901105711 49 0.0 0.0 0.00 0.00 0.00 69 1010.3
20260901104711 49 0.0 0.0 0.00 0.00 0.00 69 1010.3
20260901103711 49 0.0 0.0 0.00 0.00 0.00 70 1010.4
20260901102711 49 0.0 0.0 0.00 0.00 0.00 68 1010.5
20260901101711 49 0.0 0.0 0.00 0.00 0.00 66 1010.5
20260901100711 49 0.0 0.0 0.00 0.00 0.00 67 1010.5
20260901095711 50 0.0 0.0 0.00 0.00 0.00 66 1010.6
20260901094711 50 0.0 0.0 0.00 0.00 0.00 67 1010.6
20260901093711 50 0.0 0.0 0.00 0.00 0.00 66 1010.5
20260901092711 50 0.0 0.0 0.00 0.00 0.00 66 1010.7
20260901091712 50 0.0 0.0 0.00 0.00 0.00 66 1010.6
20260901090731 50 0.0 0.0 0.00 0.00 0.00 64 1010.7
20260901085731 51 0.0 0.0 0.00 0.00 0.00 65 1010.7
20260901084711 51 0.0 0.0 0.00 0.00 0.00 65 1010.6
20260901083711 52 0.0 0.0 0.00 0.00 0.00 64 1010.7
20260901082712 52 0.0 0.0 0.00 0.00 0.00 64 1010.7
20260901081731 53 0.0 0.0 0.00 0.00 0.00 63 1010.6